Content
SEND FEEDBACK

Daily
Averages
Monthly
Summary
United States of America

FORT TUTHILL, ARIZONA


Home > North America > United States > Arizona
Elevation: 7010 feet     Latitude: 35 08N     Longitude: 111 40W

WEATHER
 
SELECT A DAY
Number of Records: 196,027;   Date Range: 1/1/95 - 7/29/14
 
SHARE

PRINT THIS DATA

[ ← Previous Day ]
WEATHER ALMANAC - FEBRUARY 13, 2013
[ Next Day → ]
[ °C ]   °F
Weather ElementAverageHighLow
Temperature15.6 °F39.9 °F (3:57 pm)1.4 °F (4:46 am)
Dewpoint5.6 °F17.1 °F (3:57 pm)-2.9 °F (5:57 am)
Humidity68.5 %85 % (3:37 am)39 % (12:57 pm)
Barometer30.23 in30.36 in (7:57 am)30.15 in (4:26 am)
Wind Speed2.5 mph10.4 mph (11:57 am)
Wind Gust18.4 mph (11:57 am)
Weather ElementAverage
Visibility6.2 mi
Wind DirectionNNE (18.8 °)

Weather ElementTotal
Precipitation---
Heating Degree Days44.4 (Base 65)
Averaged from 34 records on February 13, 2013
WEATHER CONDITIONS BREAKOUT
WIND DIRECTION BREAKOUT
WEATHER BY HOUR - FEBRUARY 13, 2013
[ °C ]   °F
Local TimeTemperatureDewpointHumidityBarometerVisibilityWind DirectionWind SpeedGust SpeedPrecipitationEventsConditions
1:57 AM5.0 °F0.0 °F80 %30.28 in10.0 miCalmClear
2:57 AM3.9 °F-0.9 °F80 %30.27 in7.0 miCalmClear
3:37 AM3.2 °F-0.4 °F85 %30.16 in1.8 miCalmScattered Clouds
3:47 AM3.2 °F-2.2 °F78 %30.16 in1.5 miCalmHaze
3:57 AM3.0 °F-0.9 °F84 %30.26 in0.5 miCalmFogLight Freezing Fog
4:17 AM3.2 °F-2.2 °F78 %30.16 in1.0 miCalmHaze
4:26 AM3.2 °F-2.2 °F78 %30.15 in1.0 miCalmHaze
4:34 AM3.2 °F-2.2 °F78 %30.16 in0.8 miCalmHaze
4:46 AM1.4 °F-2.2 °F85 %30.16 in1.2 miCalmClear
4:57 AM1.9 °F-2.0 °F83 %30.27 in1.2 miCalmClear
5:10 AM1.4 °F-2.2 °F85 %30.16 in0.8 miCalmHaze
5:18 AM1.4 °F-2.2 °F85 %30.16 in1.2 miCalmHaze
5:32 AM1.4 °F-2.2 °F85 %30.16 in2.5 miCalmHaze
5:48 AM3.2 °F-2.2 °F78 %30.16 in1.2 miCalmHaze
5:57 AM1.9 °F-2.9 °F80 %30.29 in1.0 miCalmHaze
6:38 AM1.4 °F-2.2 °F85 %30.17 in3.0 miCalmClear
6:57 AM1.9 °F-2.9 °F80 %30.32 in10.0 miCalmClear
7:57 AM5.0 °F1.0 °F84 %30.36 in8.0 miCalmSmoke
8:57 AM19.9 °F10.9 °F68 %30.30 in8.0 miCalmSmoke
9:57 AM28.9 °F12.0 °F49 %30.29 in9.0 miENE (70°)6.9 mphSmoke
10:57 AM33.1 °F12.9 °F43 %30.28 in10.0 miENE (70°)8.1 mphClear
11:57 AM35.1 °F14.0 °F42 %30.28 in10.0 miENE (60°)10.4 mph18.4 mphClear
12:57 PM37.0 °F14.0 °F39 %30.25 in10.0 miEast (80°)9.2 mphClear
1:57 PM39.0 °F16.0 °F39 %30.24 in10.0 miNE (50°)10.4 mphClear
2:57 PM39.0 °F16.0 °F39 %30.23 in10.0 miNE (40°)9.2 mphClear
3:57 PM39.9 °F17.1 °F40 %30.23 in10.0 miENE (60°)5.8 mphClear
4:57 PM39.0 °F16.0 °F39 %30.24 in10.0 miENE (60°)9.2 mphClear
5:57 PM37.0 °F15.1 °F41 %30.25 in10.0 miENE (70°)9.2 mphClear
6:57 PM32.0 °F15.1 °F50 %30.30 in10.0 miEast (80°)5.8 mphClear
7:57 PM26.1 °F14.0 °F60 %30.31 in10.0 miCalmClear
8:57 PM23.0 °F14.0 °F68 %30.25 in10.0 miCalmClear
9:57 PM18.0 °F12.0 °F78 %30.24 in10.0 miCalmClear
10:57 PM17.1 °F12.0 °F81 %30.22 in10.0 miCalmClear
11:57 PM16.0 °F10.9 °F81 %30.21 in10.0 miCalmClear
Hourly data recorded from KFLG, located miles away from Fort Tuthill, Arizona







STORIES FROM OUR PARTNERS